Theta_e
295 288 285 284 285 287 287 287 288 289 287 287 287 286 286 285 286 288 290 292 294 291 289 290 290 290 291 291 291 293 299 309 312 313 315 315 315 316 316 320 322 323 324 324 327 328 329 331 332 332 332 331 330 330 332 332 333 334 334 335 333 333 331 330 330 331 331 331 332 333 332 331 332 332 332 333 334 334 334 335 335 334 334 333 332 332
295 287 285 286 288 289 289 289 289 289 289 288 287 286 284 286 284 289 290 293 293 291 287 288 288 288 290 291 294 295 294 298 307 310 312 315 315 316 317 318 321 322 323 325 326 327 328 331 331 331 331 331 329 330 331 332 333 334 335 335 333 332 330 329 329 331 332 332 333 332 331 329 329 329 329 331 333 333 333 334 334 332 331 331 332 332
288 286 288 290 290 291 291 290 290 289 288 288 286 284 285 284 286 289 291 292 293 290 287 287 288 289 290 293 296 298 299 302 300 303 311 313 314 315 316 317 319 320 320 322 326 326 328 331 331 331 330 330 330 330 331 333 333 334 335 334 333 331 329 326 328 330 330 329 332 332 330 329 328 331 330 333 333 335 333 332 331 332 332 331 331 332
285 286 291 292 290 290 290 289 289 288 288 285 285 285 282 285 287 283 288 290 292 292 288 287 289 288 290 291 296 300 304 306 309 308 306 310 310 313 315 317 319 320 320 323 326 327 330 331 331 331 331 330 329 330 331 332 333 334 335 333 332 331 329 325 327 330 328 330 331 331 331 330 328 328 331 331 331 331 331 330 331 332 332 331 331 331
288 291 294 291 290 290 289 289 287 285 284 286 286 284 285 287 286 288 288 290 291 291 290 289 284 284 288 292 297 302 305 310 310 312 312 314 314 312 314 317 319 321 322 323 324 327 331 331 330 331 331 331 329 330 331 332 333 334 334 334 333 331 329 326 328 329 329 330 329 329 329 329 327 328 328 329 328 330 330 331 330 330 333 332 331 331
290 294 293 291 289 289 288 287 287 287 282 284 287 288 288 288 288 289 290 287 281 284 288 286 279 283 285 293 294 299 305 308 310 311 311 312 314 315 314 311 314 318 318 321 324 326 331 331 330 330 330 330 329 330 331 333 334 334 335 334 332 331 329 327 328 329 329 328 328 326 325 324 323 323 325 326 327 328 328 328 330 332 333 332 332 332
291 294 294 290 289 287 288 287 286 288 282 283 284 289 290 288 289 287 287 284 279 281 290 290 281 280 284 294 295 295 301 306 310 311 311 312 313 315 315 314 312 316 318 323 326 327 326 328 330 329 329 329 329 330 332 333 333 334 335 333 332 331 329 329 328 329 329 326 327 327 326 326 324 324 325 328 329 329 330 330 330 331 332 333 332 332
293 292 292 291 289 287 286 284 287 289 285 282 286 290 290 289 289 287 286 284 282 285 289 286 282 280 281 290 295 299 300 306 308 310 311 312 313 314 315 316 317 318 319 322 322 320 321 323 325 326 326 327 329 330 331 328 327 328 330 331 330 330 330 329 328 328 329 327 326 326 325 326 325 325 326 328 329 330 331 330 331 330 331 332 333 332
293 291 291 289 289 286 286 288 288 290 286 284 289 291 291 291 288 287 286 284 283 285 282 281 287 280 279 287 297 300 302 304 305 308 309 311 312 313 314 315 316 317 319 320 320 318 318 320 320 321 320 321 322 325 325 325 326 328 329 329 329 329 330 330 328 327 328 328 327 327 326 325 326 326 325 329 330 329 331 329 329 330 331 331 332 332
293 294 293 293 289 286 289 291 291 292 288 289 291 292 290 289 289 286 283 285 283 280 278 282 284 278 279 289 296 300 302 302 304 307 308 309 311 312 312 314 315 316 316 318 319 320 320 321 321 322 322 321 320 323 325 325 327 328 328 329 329 329 329 330 329 328 327 327 327 326 326 325 325 325 325 328 328 328 328 328 328 329 330 330 329 328
292 298 298 292 289 292 292 292 292 292 293 290 291 290 286 285 285 285 283 282 280 277 276 280 285 282 281 291 297 298 300 305 306 307 308 309 310 312 313 313 314 314 315 316 317 318 320 321 321 321 320 321 321 321 326 325 325 325 327 329 329 329 329 329 329 327 326 327 327 327 326 326 325 324 324 325 326 327 327 327 327 327 327 328 328 327
291 292 293 292 297 295 294 291 292 294 293 291 288 285 285 284 282 280 277 279 274 273 276 282 285 284 281 288 298 305 307 307 306 305 305 307 309 311 312 312 313 313 313 314 315 316 318 319 320 320 319 319 319 319 319 322 322 323 326 329 328 328 328 329 329 327 324 325 326 326 326 326 325 324 324 324 325 327 327 327 326 326 326 326 327 328
288 290 288 290 300 295 291 289 289 290 289 288 286 286 282 275 275 275 277 276 274 277 282 284 290 289 289 295 301 304 305 306 307 307 307 308 309 310 311 311 311 311 311 311 311 312 314 316 318 318 319 319 318 317 317 319 321 323 326 329 328 328 328 328 326 324 324 325 325 326 326 325 325 325 324 324 325 326 327 328 327 325 325 325 325 325
284 287 289 289 292 296 293 287 285 285 286 286 286 280 279 274 273 269 271 271 275 279 282 282 289 287 295 299 304 304 306 309 309 310 310 309 309 309 310 310 310 309 310 310 310 311 311 313 315 318 318 318 317 316 317 317 320 322 324 324 324 324 325 324 323 323 323 323 324 325 325 324 325 325 325 325 325 325 326 327 327 326 326 325 325 324
277 282 286 288 287 292 293 291 291 287 286 287 286 286 281 276 274 270 274 271 276 276 280 284 284 284 288 291 305 306 308 309 310 310 310 310 309 309 309 309 308 308 308 308 308 309 310 311 313 314 317 318 318 317 316 316 319 322 322 323 323 323 323 322 322 322 322 323 324 325 326 324 323 324 325 325 325 325 325 326 328 328 327 326 325 325
284 279 285 291 292 293 292 293 292 289 287 287 285 286 283 281 279 276 274 277 276 277 276 282 280 287 290 302 306 309 307 307 308 308 309 307 308 307 306 306 306 306 305 306 306 306 307 309 310 311 313 317 318 317 317 317 318 320 323 324 322 320 319 320 322 322 323 323 324 326 327 326 324 324 325 324 324 324 325 326 328 328 327 327 326 326
282 282 288 292 293 292 293 294 293 292 283 286 286 283 285 288 285 275 276 281 274 275 274 281 291 294 300 303 304 305 305 305 306 306 306 306 306 305 304 304 304 304 303 304 304 305 305 306 307 308 310 311 314 317 318 319 319 319 321 322 321 320 319 320 321 321 323 323 324 326 326 325 324 324 325 325 325 325 325 326 328 329 328 328 327 327
281 281 285 289 289 292 293 294 293 293 291 286 282 286 289 291 288 283 276 271 269 269 272 280 286 289 287 284 301 302 302 303 304 304 304 304 304 303 302 302 302 302 302 302 303 304 304 305 305 306 308 309 311 313 314 315 318 320 320 321 321 320 319 320 321 321 321 322 323 324 324 323 323 324 325 325 325 326 326 325 326 326 326 326 326 327
287 280 283 288 289 293 293 292 291 294 292 291 289 291 288 279 281 280 277 271 272 271 272 282 286 288 286 286 297 298 300 301 302 302 301 301 301 300 300 300 301 301 301 301 301 302 302 303 303 305 306 307 309 311 312 313 315 316 319 321 320 320 320 322 323 321 321 322 322 324 324 325 324 323 324 324 323 323 325 326 325 326 326 326 326 326
284 279 281 287 290 291 292 288 283 286 291 291 291 288 289 284 278 278 278 278 277 268 274 281 285 284 294 295 298 298 301 302 301 301 299 299 299 299 299 299 299 299 300 300 300 300 301 302 303 304 304 305 307 308 309 311 312 313 315 316 319 322 321 321 322 322 322 322 321 322 324 325 325 324 324 323 323 322 323 326 326 326 325 325 326 325
285 284 278 284 292 294 287 292 284 284 284 286 284 283 286 284 287 285 283 279 278 270 267 276 277 283 291 300 300 301 302 302 301 299 299 298 298 298 298 298 298 299 299 299 299 300 300 301 302 303 304 305 306 307 308 309 309 310 312 313 315 317 320 321 322 321 321 321 321 321 322 324 325 325 325 324 324 324 325 325 326 326 325 325 325 325
284 284 282 282 288 287 291 297 296 291 286 284 286 285 285 284 283 280 277 284 280 276 272 273 272 283 298 304 299 297 298 299 300 298 297 297 297 297 296 297 298 298 298 299 299 299 300 300 301 302 303 304 304 304 305 307 307 308 309 310 311 313 315 316 320 323 322 321 322 323 324 325 326 326 325 323 323 323 324 325 324 324 325 325 325 325
286 284 285 285 287 289 293 297 299 299 298 295 294 291 288 284 281 277 275 279 281 283 283 281 282 285 298 300 298 297 297 297 298 298 296 296 296 296 297 297 298 298 298 298 298 299 299 300 300 301 301 302 302 303 304 304 305 305 306 307 308 309 310 312 315 319 323 322 322 324 326 326 326 326 324 322 322 324 323 324 324 325 325 325 324 324
306 282 285 286 289 291 294 297 298 297 296 294 294 294 291 288 288 280 277 280 280 281 278 278 282 286 296 298 297 297 297 297 297 297 296 296 296 296 296 296 296 296 297 298 298 298 299 299 300 300 300 300 300 301 302 303 303 303 304 305 305 306 307 308 311 315 318 322 323 322 324 326 327 326 325 321 322 323 322 324 324 326 325 325 324 324
285 285 285 280 280 282 284 287 290 294 294 289 287 290 293 292 290 285 285 282 280 282 279 280 279 285 293 298 296 296 295 295 295 295 296 294 295 295 295 295 296 296 296 296 296 297 298 298 298 298 299 299 299 300 301 301 301 301 302 303 303 305 306 307 309 311 314 318 322 323 322 323 325 326 325 321 321 323 323 323 324 325 326 324 323 323
290 285 282 279 275 272 272 274 277 284 286 287 289 290 291 291 289 286 283 279 278 281 281 281 283 289 293 295 294 294 294 293 294 295 295 295 294 294 294 295 295 294 294 295 295 295 295 296 297 297 298 298 299 299 299 300 300 300 301 301 302 303 304 305 307 309 313 317 319 321 323 323 324 325 323 321 321 322 323 323 324 324 324 325 324 322
287 289 285 280 282 281 278 279 286 288 287 285 287 289 290 289 288 285 281 277 277 281 284 288 289 288 289 291 291 291 292 291 292 293 293 293 294 294 294 294 294 294 294 294 294 295 295 295 295 296 297 297 298 298 298 299 299 299 299 299 300 302 303 304 305 307 309 312 316 319 320 322 323 323 322 322 322 322 323 323 323 324 324 324 323 322
287 286 289 289 288 286 288 288 290 292 289 289 288 288 290 290 290 288 280 281 284 286 282 289 291 287 287 289 290 290 291 291 292 292 292 293 293 293 293 293 294 293 293 294 294 293 293 294 295 295 296 296 296 297 298 298 298 298 298 298 299 300 302 303 304 305 306 308 310 312 316 319 320 322 323 323 323 322 322 322 322 323 324 323 322 322
286 284 289 290 288 290 290 290 291 291 291 290 290 289 288 290 290 288 289 290 284 279 283 290 290 286 286 288 290 290 291 291 291 292 293 293 293 293 293 292 292 292 292 292 292 293 293 293 294 294 295 295 295 295 296 297 297 297 297 298 298 299 300 302 303 303 304 305 306 307 309 314 320 320 322 323 323 322 321 321 321 322 322 322 322 321
290 286 288 290 288 289 289 289 290 289 289 289 289 290 290 290 290 290 289 289 289 288 290 288 287 285 288 288 290 291 293 292 292 293 293 292 292 292 292 291 292 292 292 292 292 292 292 293 293 294 294 294 294 294 295 295 296 296 296 296 297 298 300 301 302 302 303 303 304 305 307 309 317 321 321 321 322 322 321 321 320 321 321 321 318 317
292 286 292 288 286 287 289 289 289 288 288 286 288 289 289 290 289 289 290 290 290 287 287 286 285 284 289 291 291 293 293 293 292 291 291 291 291 291 291 291 291 291 291 292 292 292 293 293 293 293 293 294 294 294 294 295 295 296 296 296 296 297 299 300 301 301 302 302 303 304 305 307 311 320 320 320 322 321 321 321 320 320 321 319 316 313
291 287 290 287 285 285 288 287 287 288 287 286 285 286 286 286 284 285 285 288 288 285 286 286 284 283 288 291 292 292 291 291 290 290 290 290 291 291 290 290 290 290 291 291 292 292 292 292 292 292 293 293 294 295 295 295 296 295 295 296 296 296 298 299 299 299 300 302 303 303 304 305 308 315 319 320 320 321 321 320 319 319 318 314 313 311
288 288 284 283 283 283 287 287 287 286 286 283 283 286 287 287 288 288 288 289 288 290 286 285 283 288 289 291 289 289 289 289 289 290 289 290 290 290 289 289 290 290 290 291 291 291 292 292 292 293 293 294 294 295 295 296 296 296 296 296 296 297 297 297 298 299 300 301 302 303 304 304 306 309 318 319 320 320 319 320 318 316 313 310 310 308
291 290 285 285 281 283 286 285 287 283 278 278 288 291 291 286 287 285 284 286 288 289 286 289 288 290 290 289 288 287 287 287 288 289 291 290 289 290 290 290 290 290 290 291 291 291 291 292 292 293 293 294 295 295 296 296 296 296 297 298 297 296 296 297 297 298 299 300 301 302 303 303 304 305 309 318 319 317 318 317 315 311 309 307 306 304
288 286 283 284 283 282 284 284 280 274 276 287 291 291 290 289 289 287 288 289 289 289 289 288 288 288 289 289 288 288 288 289 290 290 290 291 291 290 289 290 290 290 290 290 290 291 291 292 292 293 293 294 295 295 295 295 296 296 296 296 296 296 296 297 297 297 298 299 300 301 302 303 303 304 305 307 313 316 314 312 308 306 305 304 303 302
284 285 280 282 282 284 282 280 276 275 285 289 289 290 292 291 289 288 286 288 290 290 289 287 288 288 288 288 289 289 289 290 291 292 292 292 292 290 289 290 291 291 290 291 291 291 292 291 291 292 293 295 295 295 295 295 295 295 295 296 295 295 296 296 296 297 297 298 299 300 301 302 302 302 303 305 305 307 307 306 304 302 302 301 300 299
289 285 286 282 284 282 281 280 279 285 285 286 287 288 289 286 287 285 281 284 289 290 290 288 288 288 288 288 289 289 290 289 287 288 292 292 292 292 291 291 292 292 292 293 293 292 292 293 293 293 294 293 294 294 294 294 294 294 295 295 295 295 295 295 295 296 297 297 298 299 300 301 302 301 302 303 303 303 303 302 302 301 301 299 299 297
287 288 283 283 279 283 281 278 280 279 277 282 287 292 294 293 291 289 286 283 290 290 292 290 288 288 287 288 288 289 289 286 283 284 290 292 293 293 294 293 294 293 293 293 294 294 293 293 293 293 293 292 293 294 294 294 293 293 293 293 294 295 295 295 295 296 297 297 298 299 300 301 301 301 301 301 301 302 302 302 301 300 300 298 297 296
288 287 285 284 281 283 281 279 278 277 279 285 287 290 293 294 292 289 285 281 287 290 292 291 289 289 288 287 288 289 288 283 282 284 290 292 292 293 292 293 294 294 294 294 293 293 293 293 294 294 294 294 293 294 294 294 294 294 293 294 294 294 294 294 295 295 295 296 298 298 299 300 301 301 301 300 301 302 302 301 300 299 299 298 297 297
285 279 281 281 277 275 279 278 277 280 279 286 288 290 292 294 294 289 278 279 286 290 290 291 290 289 289 290 290 289 287 282 282 285 291 292 293 293 293 293 293 294 294 295 295 295 294 295 293 292 292 292 293 294 294 294 294 294 294 293 294 293 293 294 295 296 296 296 297 298 299 299 300 301 301 301 300 301 302 302 300 299 299 298 298 298
279 278 278 276 273 277 278 278 280 281 286 288 289 291 293 294 292 282 278 281 287 289 289 289 288 288 290 289 290 285 287 289 289 290 292 292 292 293 294 294 294 294 294 294 294 296 294 294 294 293 293 293 294 294 294 294 294 294 294 294 293 293 293 294 296 296 296 296 296 296 297 298 298 299 300 301 301 301 301 302 300 299 299 298 298 298
278 276 277 275 276 274 276 278 278 282 287 290 292 293 294 290 281 279 284 290 289 288 289 289 288 289 289 288 288 288 289 291 291 292 291 292 292 292 293 294 294 294 295 295 296 295 295 294 294 294 294 294 295 295 295 295 294 294 294 294 293 294 295 296 296 297 296 296 295 295 295 296 297 299 299 300 301 301 300 301 301 300 299 299 298 297
279 279 276 273 272 274 273 276 277 276 285 291 291 290 290 284 283 287 289 290 290 289 289 289 290 289 290 288 289 289 289 290 290 291 291 292 292 292 292 293 292 292 293 294 294 295 295 294 294 294 294 295 295 295 295 295 294 294 294 294 294 295 296 296 297 297 297 296 295 295 295 296 296 297 298 298 299 300 299 300 300 300 300 299 298 297
285 279 276 277 280 276 272 272 275 284 287 292 290 283 286 287 289 290 289 287 290 290 289 289 290 290 291 290 289 289 290 290 290 291 291 292 292 292 292 293 293 293 293 294 294 294 294 293 294 294 294 295 295 295 295 295 294 294 294 294 296 296 297 297 297 297 297 296 296 295 295 296 296 296 296 297 297 298 298 299 299 300 300 299 298 297
284 282 283 280 283 278 277 282 286 289 290 291 291 289 289 290 291 291 290 289 289 289 292 290 290 291 291 291 290 290 289 290 290 291 291 291 291 292 292 292 292 293 293 293 294 295 294 294 293 294 294 295 295 295 295 295 294 294 294 295 296 296 296 296 296 296 296 296 296 295 296 295 295 295 295 295 296 295 297 297 298 298 299 299 298 297
290 290 290 287 284 289 290 290 291 290 290 290 292 292 291 291 291 291 290 288 288 290 290 289 290 290 291 291 290 290 290 291 291 291 291 291 291 292 293 293 292 293 293 294 294 294 294 294 294 294 294 294 295 295 295 295 295 294 294 296 296 296 296 296 295 295 295 296 296 296 295 295 294 294 294 294 295 295 295 295 296 297 298 298 298 298
288 286 286 285 286 284 279 289 288 288 290 290 290 292 292 292 291 290 289 289 289 289 289 289 289 289 289 290 290 288 287 287 287 288 289 290 290 290 291 291 291 292 292 293 294 294 294 293 293 293 294 293 294 294 295 294 294 294 295 295 297 297 296 295 295 294 294 294 295 296 295 294 293 293 293 293 293 294 294 294 294 294 294 296 296 296
283 289 285 285 285 283 283 288 289 290 291 291 291 290 289 290 291 291 291 291 291 291 291 291 291 290 289 289 288 288 287 286 287 285 286 287 286 287 286 287 288 290 292 293 294 294 294 293 292 293 293 293 293 294 294 294 293 294 294 295 296 296 296 295 293 293 293 294 294 294 295 294 290 292 292 291 291 291 292 293 293 291 290 290 292 295
287 290 281 285 283 286 289 289 289 289 289 289 290 290 290 290 290 290 291 291 291 290 289 289 289 289 288 287 285 286 285 284 284 285 285 285 286 286 286 287 287 288 289 290 292 292 292 292 292 292 292 293 293 294 294 294 294 294 293 293 293 295 294 293 292 293 293 293 293 293 294 294 293 293 292 291 291 290 289 290 291 292 291 291 290 291
286 281 285 285 281 281 282 284 287 282 281 285 286 288 289 290 290 289 289 289 289 288 288 288 287 286 286 285 286 286 285 284 284 283 285 284 284 284 285 285 286 287 288 288 289 290 290 291 291 291 291 291 292 293 293 294 294 294 294 294 294 294 293 292 292 292 292 292 293 293 293 294 293 293 292 292 291 291 290 288 289 289 291 290 289 289
284 285 282 281 282 281 286 288 288 287 287 287 288 289 289 290 290 289 289 288 289 289 288 287 286 286 286 286 285 286 284 285 285 283 284 284 285 284 284 284 286 287 288 288 289 289 289 290 290 290 290 291 290 292 292 293 294 294 294 294 294 294 293 291 290 290 290 291 291 291 292 293 293 292 291 291 291 291 291 291 291 289 288 289 289 289
Wind_Speed
3 5 7 7 6 6 4 6 8 6 6 4 2 1 1 1 5 3 4 6 1 1 8 10 10 7 7 5 5 9 5 4 4 6 8 5 4 4 3 7 9 9 8 5 7 8 9 8 7 7 6 6 6 6 8 8 8 8 9 9 10 10 9 8 7 7 8 7 6 5 7 7 4 5 3 6 6 7 5 3 6 5 6 6 6 6
3 6 7 7 8 9 8 7 4 2 1 1 0 1 5 0 4 3 3 4 3 6 2 3 6 6 8 7 8 6 7 4 4 2 5 6 5 6 7 6 6 3 1 3 4 6 5 6 7 7 6 7 10 8 9 10 9 9 9 10 11 8 9 8 7 7 7 6 6 6 6 4 4 2 6 7 6 7 7 6 4 5 3 4 6 6
3 6 5 10 7 2 3 4 2 4 2 1 2 2 1 5 4 9 3 4 2 4 2 2 5 8 2 8 5 6 6 7 6 3 3 3 5 6 7 5 3 2 3 3 5 5 7 7 9 8 7 7 7 8 9 9 10 10 9 9 10 9 8 5 6 6 6 3 4 5 4 7 3 3 4 2 1 6 7 7 6 7 5 5 5 6
0 5 11 4 5 4 1 2 3 3 3 3 1 1 6 3 2 5 3 4 5 1 3 4 6 2 8 3 7 8 7 6 9 9 6 6 5 5 4 1 4 4 4 7 8 9 9 9 9 8 8 7 6 7 9 10 11 10 10 11 11 10 7 6 6 5 4 6 5 4 6 4 3 1 2 2 4 3 3 5 7 8 7 7 4 3
7 1 2 8 5 6 5 2 4 3 3 1 4 4 2 1 3 6 3 4 3 3 4 7 5 3 10 6 8 10 8 13 13 12 14 12 10 7 3 1 3 5 7 8 6 5 8 9 8 6 4 4 5 6 8 9 11 9 13 13 12 9 8 7 8 7 7 8 7 6 6 6 5 1 3 2 4 6 7 7 8 8 7 6 6 9
9 8 3 6 4 4 4 3 4 6 4 1 4 9 6 4 4 3 3 3 5 2 5 4 3 2 7 4 5 7 10 13 11 14 14 13 13 12 10 9 2 1 2 3 4 4 4 4 3 2 4 5 6 8 9 9 11 11 11 10 10 8 8 9 10 9 9 9 9 8 8 8 7 6 7 9 9 8 9 8 6 7 7 8 7 8
6 1 5 5 5 5 5 5 4 7 5 2 5 8 9 5 4 3 0 4 2 3 2 2 6 1 4 8 9 8 7 9 11 15 15 13 13 12 11 11 7 3 3 4 6 8 9 8 5 1 3 6 8 9 8 8 8 7 6 6 5 3 4 7 8 9 8 8 7 10 10 10 10 10 9 7 5 7 5 6 8 8 8 9 9 8
2 3 5 4 5 6 5 6 4 9 7 2 4 7 4 5 6 3 5 4 2 2 3 4 4 5 2 5 5 8 1 8 12 15 14 12 13 12 12 12 12 10 7 5 7 6 4 4 6 7 8 8 9 4 2 7 9 8 8 9 7 5 3 3 3 6 7 8 7 7 7 8 8 9 9 9 7 6 5 7 8 8 8 10 10 9
5 4 5 4 4 4 7 6 7 9 7 4 5 7 7 9 4 5 5 3 0 2 3 5 2 6 1 3 6 6 8 11 12 12 13 13 13 13 13 13 13 12 12 12 10 11 12 10 9 9 10 11 14 11 12 12 9 7 5 2 2 1 4 4 4 6 7 7 8 8 7 7 8 6 3 4 5 6 6 7 6 7 8 8 7 7
1 7 9 9 7 6 7 6 11 12 5 8 4 3 4 5 4 5 4 5 0 3 2 3 0 5 2 5 8 5 4 9 8 9 11 11 13 13 12 13 13 13 12 11 11 11 7 7 8 8 8 11 9 7 7 4 0 4 6 7 4 5 4 5 5 7 8 7 6 7 8 9 7 4 3 4 6 6 7 7 7 6 6 6 4 3
3 2 7 5 7 8 6 4 10 11 12 3 6 4 3 7 3 4 6 4 4 1 4 5 2 6 1 3 4 3 3 4 5 5 8 11 13 14 13 13 13 12 12 11 11 11 10 8 7 7 8 7 5 3 6 9 8 7 6 7 8 7 6 7 7 7 8 7 7 8 9 9 7 5 5 6 6 5 6 7 6 5 4 4 4 5
3 1 0 3 6 3 3 2 5 11 5 6 4 4 3 1 6 4 3 5 4 2 3 2 3 2 4 1 3 5 7 7 6 8 10 11 12 11 11 12 13 13 12 12 13 13 11 8 8 8 9 7 4 2 2 8 11 6 5 5 8 9 9 8 8 6 7 6 6 5 6 7 5 5 5 6 6 6 6 5 5 5 6 7 6 6
4 4 3 5 3 10 2 4 1 3 3 4 6 7 7 2 2 2 1 2 3 5 1 4 3 6 5 1 1 7 6 5 6 7 8 10 11 11 12 13 12 11 13 12 12 12 12 11 8 9 8 6 4 5 6 5 7 3 5 7 7 6 5 3 5 10 9 9 8 5 5 4 4 5 5 5 5 5 6 6 6 6 6 5 5 6
5 3 3 4 3 3 7 7 2 4 1 6 6 6 6 2 1 3 2 0 2 4 2 3 1 5 2 1 1 6 5 5 8 9 9 10 10 11 11 11 12 13 12 11 11 10 10 9 9 8 5 5 5 2 1 2 3 5 4 5 4 2 3 4 6 4 2 5 8 10 6 4 4 5 7 7 7 5 5 4 6 7 7 7 7 6
0 2 5 2 1 3 7 8 11 8 8 7 4 9 7 7 4 2 3 4 7 6 1 2 2 4 6 2 5 6 6 7 8 8 9 9 8 7 7 11 12 13 12 11 11 11 10 10 11 10 9 5 6 5 1 1 4 4 5 4 2 0 3 4 5 6 7 5 4 8 8 5 3 3 6 7 6 6 6 5 6 7 7 7 7 7
7 5 5 6 3 4 9 4 5 6 5 0 4 7 7 5 7 3 5 4 3 3 2 5 1 1 3 1 6 4 7 9 9 10 10 10 9 7 7 10 10 10 11 11 11 11 13 11 13 12 12 11 6 6 6 4 3 3 4 3 1 1 1 0 3 5 8 12 12 9 8 7 4 3 4 4 4 5 4 4 5 6 7 7 7 6
2 1 3 6 2 5 7 5 2 6 3 3 4 4 4 4 10 5 1 0 4 6 1 0 4 3 0 3 5 3 8 8 7 8 9 9 10 12 11 11 10 7 8 9 10 10 12 12 13 11 11 11 12 12 11 9 5 4 4 3 2 2 4 4 6 7 7 5 4 8 6 6 5 6 7 7 5 4 3 4 5 5 6 7 7 7
6 4 4 2 4 3 0 2 3 1 6 6 1 6 2 4 5 6 5 3 3 4 1 2 4 5 1 1 1 5 8 7 7 8 9 10 10 10 10 11 12 13 12 11 12 12 12 12 13 13 11 13 14 13 12 14 13 8 5 4 5 3 2 5 4 4 3 5 6 3 1 5 4 5 6 6 6 6 3 1 3 4 5 4 4 4
2 1 2 2 4 1 2 4 4 1 2 10 8 4 5 1 1 3 5 1 1 0 1 3 1 2 1 0 0 3 4 6 6 7 8 9 9 10 10 11 11 11 11 12 13 12 13 13 13 13 13 13 14 14 12 12 11 11 10 5 5 5 3 5 5 3 1 3 1 2 1 5 7 7 7 4 1 0 1 4 3 1 2 4 6 6
3 2 3 2 1 1 5 4 4 2 2 3 5 3 1 6 4 3 4 4 7 2 3 1 1 2 1 0 3 1 2 6 7 6 9 9 9 8 8 9 10 9 10 11 12 12 12 12 12 12 12 13 13 13 13 12 11 13 11 12 10 5 2 2 3 2 3 4 3 2 2 5 7 9 6 2 2 3 4 7 8 8 6 4 1 2
1 1 0 5 6 2 1 2 3 5 5 0 4 3 1 2 2 6 2 2 4 6 5 6 1 2 2 2 2 4 5 6 7 9 7 7 8 9 9 9 9 10 10 10 11 11 11 11 12 12 12 11 11 11 11 11 12 11 11 12 12 11 10 6 4 3 5 4 4 4 6 7 8 9 6 3 6 5 6 6 5 5 5 5 6 4
2 0 2 4 6 6 2 2 3 6 4 6 6 2 4 2 4 4 3 2 3 5 4 6 3 1 0 4 7 9 7 10 9 8 7 7 8 8 6 8 9 9 10 11 11 11 11 11 11 11 12 12 12 12 13 13 11 12 13 10 10 11 9 10 8 5 6 5 5 7 8 9 8 8 4 5 6 6 1 2 3 1 3 5 4 5
4 3 6 4 0 2 1 5 2 8 13 7 6 2 3 1 6 4 4 3 4 2 4 3 8 2 6 5 7 9 7 9 9 6 6 6 6 6 7 8 9 9 10 11 11 10 9 10 11 11 12 12 12 12 12 11 12 12 12 12 10 9 10 11 11 10 8 6 5 6 7 8 7 6 5 7 7 5 5 4 7 7 7 7 6 6
6 3 6 2 2 0 3 3 3 6 5 8 7 4 3 1 1 3 2 6 6 1 3 2 4 2 4 5 6 9 8 8 7 7 6 5 4 6 7 8 9 9 9 10 9 9 9 9 9 9 11 11 12 12 12 11 11 10 10 12 13 12 12 11 11 11 12 10 8 6 5 5 7 8 6 6 5 6 8 8 7 7 6 6 6 6
2 1 7 3 2 1 2 3 6 6 7 5 2 4 3 1 3 2 5 1 7 1 3 7 7 4 4 5 5 7 9 9 8 7 6 5 6 6 7 7 7 9 9 10 10 9 9 9 10 10 10 10 10 10 10 12 12 12 12 12 13 13 13 10 9 10 10 11 10 7 6 4 3 5 7 8 9 9 10 10 9 8 8 7 6 6
7 1 3 6 6 5 2 2 2 2 2 1 2 6 5 6 2 2 2 1 3 0 3 5 5 4 7 5 7 7 7 9 7 7 7 7 7 7 7 7 8 8 9 10 9 9 9 8 9 10 11 10 10 10 10 11 12 12 12 13 13 14 14 14 11 10 10 9 8 7 6 4 3 4 6 9 10 8 9 9 9 8 7 8 9 6
4 2 3 3 8 10 6 3 1 4 4 5 4 9 9 2 3 3 5 4 4 3 3 2 9 13 8 6 6 6 7 8 6 7 8 7 7 7 7 7 8 8 8 9 8 8 8 10 11 11 11 10 10 11 11 11 12 13 12 13 13 12 13 12 12 12 10 11 11 8 6 6 3 3 6 7 7 6 7 8 9 9 9 9 10 9
5 6 7 9 12 5 3 6 4 5 9 5 6 5 7 7 4 7 4 2 2 10 3 1 10 9 7 7 6 5 5 5 6 6 5 5 6 6 6 8 11 11 11 9 10 10 10 10 10 11 11 12 11 11 10 10 12 12 12 12 12 11 11 10 11 11 10 10 10 11 11 6 4 4 5 5 5 7 7 6 7 8 9 9 10 10
5 5 1 11 10 10 7 8 11 12 12 10 10 8 10 8 12 8 3 2 2 2 8 10 10 7 7 6 6 5 5 6 7 6 5 4 5 7 9 11 11 12 13 14 14 14 14 14 12 12 12 10 10 11 10 9 10 9 10 11 12 11 11 11 10 10 10 10 9 9 9 11 6 3 4 5 6 6 5 5 5 7 7 5 8 7
7 5 2 9 13 10 8 7 8 14 10 11 11 11 8 11 12 13 12 9 9 8 9 14 13 10 5 5 5 6 6 6 5 5 5 7 8 8 9 10 11 11 12 13 14 14 13 14 13 12 12 11 13 13 11 10 10 9 10 10 11 11 12 11 11 10 10 10 10 11 10 10 10 4 3 5 8 8 8 7 5 4 8 7 3 4
6 1 5 1 7 6 6 6 9 10 13 13 11 10 9 8 11 9 10 11 16 13 12 13 13 8 4 5 6 5 4 4 5 7 8 7 8 8 9 10 10 11 11 12 13 13 13 13 13 13 13 13 14 13 12 11 11 10 11 11 11 11 12 11 12 11 10 10 9 10 11 10 11 6 5 6 6 7 8 10 9 9 8 8 8 6
7 5 1 1 8 4 2 8 9 13 15 14 11 10 9 8 7 6 4 4 4 10 10 11 7 4 4 6 6 6 6 7 7 8 7 6 7 7 9 9 10 10 11 10 10 11 12 12 13 13 13 12 13 13 13 13 12 11 12 12 12 12 11 11 11 12 12 11 11 8 10 10 11 9 5 7 7 8 9 9 11 11 9 7 8 5
2 8 5 3 9 4 5 0 1 2 5 7 6 5 7 7 5 5 8 10 7 1 6 6 4 5 7 6 7 7 8 8 9 7 6 6 6 7 9 9 8 8 8 8 9 10 10 10 10 11 12 11 12 12 13 12 12 12 12 12 11 11 12 12 12 13 13 13 13 11 11 10 10 11 5 8 8 8 9 12 11 11 9 6 7 7
4 9 5 2 6 4 4 1 3 2 3 2 1 3 2 0 5 10 6 7 9 6 4 5 8 8 7 6 8 8 8 7 7 7 6 5 5 7 8 8 7 8 7 7 8 8 8 8 8 9 9 9 10 10 10 10 10 10 10 10 10 11 11 11 12 12 13 14 14 13 12 11 11 11 11 5 8 6 10 10 10 8 7 10 7 7
7 5 4 2 7 6 2 1 3 2 2 3 4 5 8 7 10 13 11 10 9 10 12 11 10 8 8 7 9 10 9 8 7 8 7 6 6 6 6 7 8 7 7 7 8 8 8 8 8 8 9 9 9 9 9 10 10 9 10 11 11 11 11 11 12 13 13 14 14 14 13 13 13 13 10 11 6 6 6 8 8 9 7 7 8 7
5 7 3 4 2 4 2 1 3 1 4 4 5 7 6 6 5 9 11 9 8 7 8 9 9 10 10 9 8 7 9 9 8 8 8 7 6 4 4 6 6 6 7 7 7 7 7 7 7 8 8 7 8 8 9 9 10 9 10 9 9 10 10 11 12 13 13 14 14 14 13 12 14 13 13 11 13 10 4 9 10 10 6 6 7 5
10 5 6 4 3 5 3 3 5 6 6 5 4 2 2 1 0 1 4 3 5 4 6 10 10 9 9 8 8 8 6 6 8 7 7 7 7 7 6 6 6 7 6 7 7 7 6 6 7 7 7 7 8 9 9 9 8 8 9 10 10 9 11 12 13 14 13 13 14 14 13 12 13 15 14 13 12 13 9 8 11 9 8 9 6 7
3 9 4 7 1 2 6 5 4 1 3 5 1 1 1 1 1 2 5 3 2 6 3 10 10 9 9 8 8 9 6 4 6 5 5 5 6 5 5 6 6 6 6 7 7 7 8 7 7 7 6 7 9 9 8 8 8 8 9 10 10 11 11 12 13 12 13 13 14 14 14 13 10 14 14 13 13 11 10 6 9 10 8 9 6 4
11 10 7 8 5 4 3 5 3 4 1 2 5 1 2 3 1 2 4 2 1 3 3 9 9 8 10 10 9 5 1 2 3 3 3 4 5 5 5 6 6 6 7 7 7 8 8 8 7 6 7 9 11 11 10 9 9 9 10 10 10 11 11 12 12 12 12 12 12 13 13 12 11 12 15 14 14 11 8 9 8 10 10 9 8 6
11 5 5 7 5 1 4 3 3 0 2 2 1 1 3 3 1 0 1 2 2 3 5 4 8 9 7 7 5 4 1 4 4 4 2 3 3 4 5 6 7 7 8 7 8 6 6 6 8 9 10 11 10 9 9 8 8 9 10 10 9 11 11 11 10 10 10 11 11 12 12 12 12 10 13 14 14 13 10 7 8 10 12 10 7 8
5 4 6 6 4 6 5 2 2 1 0 1 1 3 5 3 0 1 4 2 2 4 5 6 4 2 2 4 3 3 3 4 7 5 2 2 4 5 4 3 4 5 6 7 7 7 6 7 6 7 8 8 8 8 8 7 8 9 9 9 10 11 9 8 8 9 9 9 11 12 12 12 12 11 10 11 13 13 11 8 8 9 11 11 9 10
3 3 1 3 5 4 1 4 2 1 0 1 1 2 3 2 4 4 3 3 6 6 5 6 7 4 5 6 6 7 8 9 8 5 5 4 3 2 3 4 5 6 6 6 8 8 7 7 8 9 9 8 8 8 8 8 8 8 8 9 10 10 8 8 9 8 8 10 10 11 11 12 12 11 10 9 11 15 12 9 8 10 10 10 10 12
1 3 1 2 1 2 2 4 2 2 2 1 1 1 3 1 1 4 7 7 6 7 8 7 7 7 9 10 9 10 9 8 7 6 4 2 3 3 3 3 3 3 3 5 6 7 6 6 8 8 7 6 6 6 6 7 8 8 7 8 8 7 8 8 9 8 8 9 9 9 10 10 12 11 10 10 9 12 12 8 8 9 11 11 11 12
1 4 1 1 2 4 2 2 2 1 1 2 2 2 0 2 7 7 8 8 6 6 7 7 7 7 9 11 10 8 8 8 5 4 4 2 2 2 2 2 3 3 4 3 3 4 4 5 6 7 7 7 7 5 5 5 7 7 8 8 7 7 7 8 8 8 8 8 8 8 8 9 10 11 11 11 10 10 10 9 7 8 9 9 9 9
4 3 2 5 1 2 2 2 2 3 4 5 7 8 8 7 6 7 8 8 8 6 6 7 9 7 8 10 9 9 7 5 5 3 4 2 2 2 2 2 2 2 3 3 4 5 4 5 5 6 7 7 8 7 6 5 6 7 8 8 6 7 7 7 7 8 8 8 8 8 7 7 8 9 10 10 10 10 9 9 8 9 9 8 8 8
5 8 6 8 8 11 10 7 6 7 8 10 9 7 9 9 7 7 8 8 4 6 5 7 6 6 5 4 8 6 6 5 5 2 2 2 1 0 0 0 2 2 3 4 4 6 5 5 5 5 6 6 7 7 6 7 6 6 7 7 6 5 6 6 7 8 8 8 7 8 8 8 8 9 9 9 9 9 8 7 7 7 6 7 7 7
1 1 1 7 8 2 5 3 9 9 8 9 10 8 7 7 6 5 6 6 7 6 6 5 6 6 5 5 6 6 4 4 4 2 1 1 0 0 0 2 3 3 3 4 4 4 5 4 5 5 5 5 6 6 6 6 6 5 5 6 7 6 6 5 7 7 7 7 7 7 7 8 8 7 9 10 9 9 9 8 7 8 7 6 5 5
3 1 8 5 7 4 6 7 8 8 7 6 6 8 8 6 7 6 6 6 7 6 6 6 6 5 4 5 5 6 5 4 5 3 2 1 2 1 2 3 3 4 4 4 4 4 4 4 4 5 5 5 6 6 5 5 5 5 6 6 6 6 7 7 6 6 6 7 6 5 6 6 8 9 7 8 8 8 7 7 7 7 7 6 5 5
3 1 3 2 7 9 11 9 8 9 8 6 4 3 4 6 7 7 7 8 7 7 5 3 3 5 4 5 4 5 4 3 4 4 3 2 2 2 3 3 4 4 4 5 5 4 4 4 5 5 5 6 5 5 6 6 5 5 5 5 5 5 5 6 6 7 7 6 6 6 5 5 6 6 6 6 7 8 7 6 6 5 5 5 3 3
6 6 7 12 11 6 5 9 11 9 5 2 3 4 4 4 7 8 7 7 7 6 5 5 3 3 3 4 5 5 5 4 2 2 2 3 3 3 3 3 3 4 4 4 3 4 5 5 4 5 6 6 5 5 5 6 6 5 5 5 4 5 5 5 6 6 6 6 6 5 4 4 4 4 5 5 5 6 7 8 10 7 5 5 7 10
6 9 4 6 8 7 6 11 1 5 10 5 7 4 5 5 7 8 8 7 5 5 5 5 4 4 3 1 1 5 4 4 4 2 1 2 3 3 3 3 4 5 5 4 5 6 6 6 5 5 6 6 5 6 5 6 7 6 5 5 4 4 4 4 5 5 5 6 6 5 4 4 4 3 3 4 4 4 5 5 7 10 10 8 7 8
Wind_Direction
144 171 185 195 192 204 203 172 178 194 147 140 115 107 259 251 287 280 255 259 199 241 230 224 231 233 270 262 334 344 9 341 140 153 169 192 189 197 193 199 204 208 204 191 196 198 197 187 182 179 175 173 159 153 159 165 171 173 174 174 183 188 183 174 162 164 166 163 148 160 181 185 167 173 187 190 174 171 163 197 188 190 189 183 177 176
100 186 225 204 199 188 190 190 184 87 90 160 189 249 289 143 268 260 264 306 285 161 289 212 230 250 244 31 6 354 21 9 340 167 185 197 195 192 197 211 220 229 51 144 177 193 183 177 177 176 178 174 168 168 164 171 174 176 177 183 189 189 193 180 166 168 170 173 176 172 184 156 147 135 178 192 187 184 163 182 188 187 223 207 184 178
177 203 229 220 203 159 104 152 142 168 136 79 194 237 302 282 238 275 282 273 282 143 285 132 171 231 259 52 26 30 35 6 349 294 315 253 219 206 204 186 170 175 220 198 195 189 187 178 177 179 184 186 180 164 168 174 172 174 178 185 196 198 187 159 159 160 164 132 130 147 174 172 130 156 191 134 182 176 167 174 189 186 191 215 199 181
224 279 235 203 125 148 164 120 117 82 79 129 81 228 230 229 20 307 284 312 340 72 191 170 156 303 2 71 40 28 30 24 20 35 36 30 6 337 319 215 163 172 204 217 201 193 186 184 179 180 184 182 169 167 172 175 175 176 180 190 199 197 173 142 168 155 119 124 118 112 144 138 87 99 192 112 136 129 104 188 182 184 186 190 195 167
202 208 189 131 149 154 197 183 137 142 221 289 172 211 196 163 228 182 256 309 314 1 77 92 53 11 11 31 10 5 1 34 16 24 27 22 14 355 4 84 172 195 193 212 222 206 193 187 183 171 152 153 178 185 184 178 178 184 187 195 195 187 168 156 168 152 139 135 128 125 114 113 91 116 159 169 187 177 186 183 190 194 171 164 197 196
250 248 84 125 136 162 171 191 194 144 203 308 230 211 210 194 225 299 311 25 24 344 355 112 57 55 304 9 35 1 12 25 9 31 27 18 16 15 9 338 338 55 354 318 321 347 356 25 57 86 142 170 188 195 194 186 181 190 194 193 193 180 167 172 172 161 157 164 160 154 148 158 170 182 189 198 195 188 190 187 175 172 161 172 211 203
211 178 152 155 163 166 177 201 219 156 172 121 264 204 222 206 192 149 329 69 0 100 342 60 131 162 309 19 359 359 11 13 24 34 28 24 23 24 21 13 12 30 60 50 45 43 32 21 32 5 209 206 201 200 187 187 194 191 190 203 205 197 190 180 174 171 166 164 171 174 177 174 179 185 202 192 182 189 184 167 179 172 162 177 195 209
133 179 159 152 146 165 171 212 232 155 133 219 241 187 184 134 173 183 109 122 198 245 293 35 102 132 350 329 355 345 5 31 38 35 29 28 31 29 26 29 31 25 20 65 67 57 52 31 26 3 358 345 322 253 148 42 23 3 6 19 4 351 323 282 222 195 185 171 177 181 184 186 191 195 189 181 184 174 166 177 177 170 176 181 194 197
162 176 158 178 172 154 195 204 185 151 138 213 243 175 170 188 174 139 107 117 135 116 274 321 353 69 297 285 344 350 26 24 31 29 26 25 27 26 30 31 33 32 37 42 45 46 22 353 15 38 33 18 8 11 44 40 23 21 32 56 241 248 250 240 248 231 216 196 182 183 183 197 212 205 191 176 155 164 170 179 176 174 177 186 190 192
269 176 198 170 151 201 222 194 155 162 171 261 212 97 73 71 73 121 107 107 357 67 262 265 172 113 284 312 351 342 41 25 13 26 27 24 30 29 27 28 31 32 30 35 39 54 47 34 37 44 49 47 32 24 73 79 327 223 195 200 182 204 220 231 222 238 236 221 193 186 191 201 200 169 161 168 169 172 175 181 175 173 174 183 180 158
234 317 160 130 188 212 208 183 163 170 200 122 116 105 26 45 56 26 64 100 79 59 255 239 343 127 125 302 330 346 24 349 354 27 30 27 31 34 34 34 33 31 29 30 33 36 37 27 20 30 50 48 50 39 125 156 185 231 229 206 196 196 201 221 226 231 241 234 210 202 197 198 191 177 166 170 182 174 178 187 173 159 127 123 151 125
346 350 107 238 195 216 166 114 179 195 177 126 158 132 92 1 18 30 347 37 106 273 259 270 114 86 140 255 291 50 48 23 27 41 36 36 38 39 38 36 34 31 27 25 25 25 25 31 26 25 36 53 52 278 167 180 211 214 229 240 207 199 200 211 223 242 254 258 242 227 207 200 180 169 176 185 188 189 189 183 160 150 160 182 176 160
291 248 242 292 235 180 138 152 145 113 102 108 96 65 126 236 47 242 7 179 156 168 192 198 63 42 27 61 2 62 49 40 48 54 50 48 44 41 42 43 38 32 27 26 22 20 17 18 15 24 29 26 14 345 340 352 10 1 252 257 233 227 220 225 41 18 339 322 302 272 243 217 167 165 171 189 193 197 196 179 162 168 192 186 181 174
273 284 319 267 299 196 133 145 183 123 80 119 129 133 106 125 82 190 271 236 333 293 233 186 231 87 123 86 32 78 61 57 63 60 55 54 50 46 47 43 41 37 31 21 17 16 13 10 10 358 3 9 329 343 306 325 14 353 324 348 18 53 85 109 105 127 84 342 323 301 278 249 197 174 176 192 194 186 187 186 183 177 191 200 201 189
72 307 286 147 258 180 161 163 174 172 167 191 146 138 166 139 156 192 194 170 188 186 238 269 74 199 166 235 102 97 85 63 55 50 48 49 49 52 53 49 42 36 30 23 18 15 6 2 4 2 347 334 326 319 355 19 344 331 321 339 44 328 130 133 162 169 151 153 205 261 262 247 239 202 199 195 188 186 184 191 195 193 189 198 197 195
183 200 254 217 225 162 172 195 129 109 82 32 153 78 95 201 142 142 203 146 178 128 43 3 72 33 121 359 37 78 83 67 49 44 45 38 32 36 44 40 36 33 27 22 19 11 8 3 3 359 4 353 320 309 322 332 337 321 328 341 319 246 250 264 229 220 196 197 194 204 231 229 214 216 226 223 193 193 193 195 205 209 201 199 190 191
60 306 266 301 146 185 182 151 217 142 170 244 93 149 208 167 112 89 49 77 111 63 59 296 103 63 106 103 71 60 92 78 59 52 47 41 34 27 24 21 23 27 29 20 16 12 7 3 0 359 358 356 2 5 0 354 343 316 300 304 294 314 10 284 255 244 243 258 203 203 212 221 206 200 209 211 207 195 188 209 218 220 219 203 191 188
137 237 297 145 255 294 152 164 126 34 141 85 140 220 109 83 108 127 179 336 57 140 241 37 138 161 133 222 107 77 88 79 66 61 52 45 39 36 23 17 11 9 7 7 11 11 11 7 2 359 355 357 358 2 6 6 1 349 297 316 299 270 236 264 273 267 309 341 332 346 332 280 257 228 218 209 207 201 160 93 8 352 335 305 271 208
132 341 306 285 244 283 34 65 26 31 43 157 191 176 119 217 220 324 94 97 119 110 122 360 23 56 130 230 131 54 100 97 75 65 59 44 36 29 21 15 6 3 6 10 7 5 5 4 2 356 350 349 355 356 3 4 2 1 356 305 284 314 288 247 250 258 16 57 126 151 199 272 272 253 234 216 100 25 160 122 134 109 11 349 338 314
56 142 292 310 42 253 54 51 183 272 327 58 94 40 332 101 150 127 195 169 116 195 85 351 37 182 242 251 93 141 118 117 107 89 69 55 41 33 20 9 5 3 9 9 7 5 1 2 0 355 349 351 350 352 354 360 3 5 356 356 343 309 310 320 291 270 260 235 236 288 226 218 235 252 248 193 137 122 171 161 171 175 150 121 130 323
219 126 121 280 323 103 68 9 214 178 174 27 48 346 11 15 219 106 40 91 169 162 160 142 197 263 240 246 155 120 96 98 86 76 65 53 38 32 18 9 2 4 8 9 7 0 357 357 358 355 351 349 349 355 358 3 3 357 358 357 352 350 353 330 272 244 251 249 227 197 218 234 236 241 235 150 112 191 188 178 182 182 164 152 152 144
97 72 163 301 28 36 105 303 236 185 159 151 140 139 166 112 118 132 233 32 64 103 179 133 200 248 257 59 87 71 39 62 67 70 64 50 37 23 11 4 5 3 5 8 6 2 355 355 353 354 352 353 356 357 356 357 357 0 359 351 350 347 350 339 329 294 264 243 219 212 215 218 228 234 236 118 150 209 138 85 69 73 146 164 156 134
150 132 88 61 140 131 274 303 24 84 93 87 93 97 120 125 100 93 146 227 46 64 106 106 117 156 24 62 83 86 71 65 67 76 74 59 43 30 15 7 1 4 5 6 7 3 356 355 356 354 356 355 352 351 353 354 356 350 345 347 350 343 339 333 320 316 307 277 251 232 214 214 216 219 197 155 182 187 126 156 174 171 182 174 165 151
88 72 74 10 9 332 274 253 34 46 71 57 34 49 49 63 151 168 173 175 120 144 63 26 67 131 68 67 74 84 82 72 61 58 65 54 40 28 19 9 5 360 2 6 8 3 358 358 359 1 2 359 357 353 351 346 346 344 343 344 341 340 338 336 331 327 323 315 295 280 270 235 204 196 192 178 203 177 157 183 180 181 177 168 162 157
78 307 109 124 37 346 342 333 2 354 50 67 39 339 337 346 60 153 105 71 91 206 169 122 159 176 122 75 74 77 76 73 63 52 40 38 28 26 17 11 8 5 3 6 8 3 0 3 6 6 3 2 357 354 350 349 348 345 344 345 344 335 331 329 337 335 329 326 316 290 272 277 261 204 188 172 200 193 175 178 175 175 171 159 158 147
84 161 91 133 150 150 167 190 193 69 55 338 51 343 6 41 53 88 115 20 108 238 92 110 102 101 113 86 70 62 69 70 57 41 38 37 26 18 14 12 15 13 10 8 5 3 6 4 6 9 6 1 359 356 353 351 348 344 343 343 343 337 332 332 334 333 331 327 318 310 300 281 260 237 190 181 205 186 184 177 174 168 165 163 162 163
110 80 64 157 155 177 195 191 227 119 48 55 328 16 350 356 4 95 99 92 162 174 81 328 157 136 127 103 76 62 57 63 57 46 31 18 13 21 20 19 18 18 16 11 6 4 5 13 12 9 9 5 1 0 1 356 352 349 344 344 345 340 335 334 333 334 339 342 335 316 293 283 268 220 199 195 196 194 192 187 178 170 170 168 164 164
77 71 360 72 57 79 92 69 60 82 103 71 51 2 9 27 49 67 82 139 181 115 10 67 140 110 119 98 89 81 78 75 68 58 44 17 20 23 21 24 21 18 13 13 13 11 12 11 12 12 7 5 4 3 5 1 358 351 346 343 342 336 336 338 339 337 340 342 340 339 328 300 251 219 212 208 200 201 193 190 182 172 166 169 168 167
112 98 348 80 62 59 48 79 88 77 78 85 69 48 41 37 54 71 51 28 72 141 166 147 125 97 106 95 96 84 82 75 67 61 49 42 27 30 30 26 22 18 13 12 9 10 10 10 6 5 5 0 3 6 3 0 356 351 349 346 338 333 336 331 332 336 339 338 334 333 329 322 289 224 215 208 197 195 168 174 190 165 152 165 158 149
95 46 40 99 89 56 46 54 79 93 84 60 47 54 48 58 68 75 74 64 71 67 90 109 96 93 101 100 88 76 63 70 66 52 49 39 27 31 33 29 24 18 17 16 12 8 7 4 2 0 358 0 5 1 360 358 358 356 353 349 344 341 335 332 338 335 340 346 337 330 332 333 313 246 175 173 192 180 159 164 169 164 156 144 136 157
105 153 169 79 83 56 49 68 72 82 80 68 46 40 45 56 64 55 75 78 84 69 81 90 97 94 74 81 85 78 81 83 70 56 49 39 34 32 35 34 27 21 15 17 14 11 9 5 2 359 1 2 1 356 355 355 353 353 356 355 352 349 342 340 343 345 348 342 336 335 335 338 333 287 178 195 198 174 169 160 162 165 167 165 155 163
66 150 140 40 94 82 73 98 100 90 81 73 49 29 23 16 38 12 45 344 111 127 117 100 84 108 118 106 96 82 75 63 60 56 47 38 30 33 39 32 29 22 19 13 5 5 7 5 2 3 0 353 354 355 355 352 350 354 357 351 354 347 343 350 352 351 349 348 345 343 350 336 333 310 211 192 205 191 177 165 162 167 163 155 145 166
99 133 129 127 91 129 187 163 133 125 87 54 31 50 67 76 101 83 47 42 34 84 121 126 131 117 133 131 110 81 66 58 53 42 49 43 29 37 35 27 21 17 14 7 6 6 6 6 1 360 358 357 356 355 351 350 351 355 349 349 344 342 354 356 356 353 354 351 352 353 3 350 340 330 263 196 204 192 182 172 163 158 149 141 138 152
94 126 122 129 99 155 191 323 303 67 98 182 13 290 250 247 103 72 48 48 34 62 88 78 112 121 118 113 102 94 76 67 66 53 43 33 23 34 33 27 24 19 13 11 10 6 2 6 6 3 359 356 352 353 346 348 349 345 344 342 341 353 353 357 357 356 354 353 355 352 3 8 356 343 335 266 190 197 186 176 154 131 130 135 134 150
119 85 91 60 111 152 170 10 59 73 232 24 48 61 82 100 89 88 74 63 76 80 93 99 106 108 107 103 106 106 103 98 82 71 51 40 39 42 33 30 24 19 14 13 16 9 5 3 358 360 3 1 357 353 351 350 350 345 348 349 349 351 355 0 359 360 356 356 354 354 359 14 10 357 344 3 333 201 171 133 112 112 124 126 132 139
128 109 127 50 61 79 64 32 135 222 104 94 100 103 122 108 115 85 61 42 48 80 106 110 116 117 119 115 110 111 110 101 80 55 40 29 31 29 29 28 13 14 11 11 10 1 359 356 358 359 357 352 357 359 0 354 348 351 349 345 351 351 359 2 5 3 359 359 357 355 354 7 26 2 3 5 22 353 93 107 106 107 87 87 90 84
124 93 101 80 348 128 115 61 81 123 131 151 159 206 229 202 253 137 121 44 31 15 123 127 128 127 124 125 129 134 134 111 78 53 32 33 36 39 40 35 21 15 8 5 4 354 347 349 359 353 352 353 3 7 2 353 351 353 354 0 356 357 3 6 9 4 359 359 355 355 352 357 27 26 4 14 27 14 346 88 100 89 98 92 74 104
104 127 211 106 310 100 126 103 118 138 224 195 190 105 34 311 247 145 101 118 53 8 118 138 138 136 135 141 152 162 182 68 58 49 17 18 13 19 17 15 8 6 8 3 357 358 1 0 358 355 356 350 3 7 357 353 356 359 7 5 359 6 7 9 8 0 1 359 356 354 353 353 13 43 19 18 24 27 359 9 75 77 77 86 73 64
47 75 107 103 140 93 95 121 154 183 233 68 152 250 343 313 160 141 76 139 54 19 32 143 142 150 156 163 176 193 236 74 95 94 38 13 19 15 21 17 13 13 13 11 5 360 356 357 355 351 355 6 9 359 356 355 357 11 15 9 5 10 13 11 2 0 359 358 356 357 356 355 0 41 45 24 24 20 27 9 52 84 74 79 78 65
51 11 45 72 88 73 130 97 163 102 189 222 245 293 281 317 281 153 351 236 131 50 56 98 142 162 169 177 173 217 177 137 149 141 102 50 40 22 24 20 18 15 15 9 10 0 354 358 2 0 6 8 359 352 357 357 6 14 13 7 7 14 15 5 359 355 357 357 1 1 1 359 360 18 54 46 35 23 20 26 43 58 82 67 65 71
13 18 39 133 129 91 79 87 53 74 285 300 336 305 307 268 117 142 222 131 142 77 74 96 92 76 130 152 148 126 22 93 118 122 118 93 63 35 21 21 23 19 17 10 5 357 4 2 6 9 7 360 351 351 354 359 15 14 7 4 8 9 359 349 350 359 359 2 7 7 4 3 4 5 22 63 62 45 22 22 44 60 67 75 69 67
28 84 10 66 59 98 104 93 146 120 235 66 247 306 299 85 156 219 120 133 112 92 85 92 99 96 103 99 101 104 105 101 109 108 100 76 78 55 37 32 31 26 16 12 10 9 0 359 5 9 6 359 354 352 352 356 10 10 3 5 5 352 344 351 354 354 357 9 13 14 10 7 4 7 9 20 61 69 48 11 41 52 59 67 67 67
206 91 105 118 173 59 49 93 84 156 169 66 324 344 14 149 260 114 115 87 97 103 99 87 95 104 111 106 104 109 109 110 111 109 105 99 81 63 46 39 34 25 15 10 10 5 8 5 4 4 2 356 359 352 349 359 2 357 352 1 348 340 346 349 352 354 358 3 11 16 17 15 11 10 8 18 28 68 72 44 26 55 62 60 61 64
253 88 115 177 191 134 106 135 193 336 336 274 187 163 309 79 134 129 119 109 96 98 97 98 91 105 110 115 119 117 121 121 120 124 110 99 90 54 39 28 18 18 11 2 10 2 8 15 8 7 360 1 4 2 354 1 0 349 349 348 333 344 350 353 347 350 359 4 7 7 14 17 19 15 16 17 24 41 63 63 50 36 53 64 65 64
315 131 219 128 66 143 163 123 59 47 51 43 96 105 105 101 108 115 112 114 119 107 114 111 119 119 126 129 130 130 129 128 130 141 126 119 100 80 59 22 6 354 343 342 339 347 5 11 7 1 3 2 4 0 2 12 10 351 343 328 341 346 355 355 358 356 353 2 6 10 2 15 21 22 21 22 24 36 37 48 54 58 42 48 53 61
108 103 108 84 82 83 64 79 98 76 76 81 73 90 104 103 97 107 114 115 111 118 125 126 122 122 113 112 118 117 126 141 132 128 115 128 133 315 301 355 336 329 338 343 343 350 346 351 358 2 355 355 3 2 3 8 14 1 326 317 335 351 350 358 8 6 357 349 360 11 14 14 15 20 22 26 30 36 35 41 43 56 58 59 57 55
311 312 49 109 167 105 78 93 100 106 98 96 96 88 89 100 110 109 106 107 117 110 100 102 115 121 130 128 127 129 135 127 123 118 109 104 268 280 315 316 320 321 318 323 315 333 339 351 347 345 344 348 345 352 356 6 4 347 329 331 334 342 349 2 10 6 5 1 349 1 17 30 16 14 22 23 24 30 33 31 38 45 44 40 48 57
19 86 80 80 73 74 122 126 97 87 82 88 104 117 113 109 107 110 113 114 113 116 123 134 128 123 121 125 137 136 143 144 136 156 160 198 228 259 291 302 303 325 315 311 313 332 335 339 334 325 337 335 334 335 341 357 352 346 347 345 348 343 352 3 12 9 10 5 1 6 10 22 32 34 28 24 30 33 29 32 42 52 42 33 20 37
151 130 92 183 100 91 95 91 98 92 90 83 76 79 105 121 118 108 108 113 119 120 124 107 110 138 127 138 125 124 127 164 163 161 173 237 279 294 281 283 289 287 292 316 316 330 322 317 319 321 324 320 320 329 336 338 336 332 343 345 345 356 5 11 6 13 12 8 13 10 12 27 34 43 41 33 37 43 36 25 20 40 55 36 30 28
74 83 129 110 110 135 157 151 148 127 135 124 126 133 123 115 115 112 109 112 118 123 122 109 69 67 106 131 140 137 147 183 206 160 188 218 238 256 281 289 290 303 305 295 305 312 316 310 308 315 317 311 314 326 333 330 330 331 338 342 356 1 19 13 21 18 7 0 10 6 8 26 33 45 53 44 38 46 48 40 47 39 51 36 28 54
125 157 144 128 144 154 144 153 156 109 125 151 148 140 127 128 122 123 128 134 138 139 135 123 111 92 112 101 127 143 161 171 210 180 213 262 259 251 256 283 301 310 307 324 339 321 319 308 309 310 309 301 317 322 333 331 327 328 340 340 356 8 18 20 26 23 12 5 360 1 14 22 24 24 60 75 68 54 64 56 39 46 53 58 59 68